Torna al catalogo

STARLINK-3730

AttivoComunicazioniVLEO
NORAD 52139·PAYLOAD·🇺🇸 United States

Lanciato Mar 19, 2022 da Cape Canaveral Space Force Station

Loading…

Prossimi Passaggi (prossime 24 ore)

TLE

AggiornatoSource: CelesTrak SupGP

Epoca: Sep 14, 2026, 21:22 UTC

1 52139C 22029BD  26257.89076389  .00018066  00000+0  53398-3 0  2575
2 52139  53.1562 295.5964 0001262 105.0313  14.7590 15.34369342    15

Traccia STARLINK-3730 in tempo reale con AllMySat

Download on the App Store